QPF
0.00 0.00 0.00 0.00 0.00 0.00 0.00 0.00 0.00 0.00 0.00 0.00 0.00 0.00 0.00 0.00 0.00 0.00 0.00 0.00 0.00 0.00 0.01 0.02 0.02 0.02 0.00 0.00 0.01 0.03 0.02 0.01 0.00 0.00 0.00 0.00 0.00 0.00 0.00 0.00 0.00 0.00 0.00 0.00
0.00 0.00 0.00 0.00 0.00 0.00 0.00 0.00 0.00 0.00 0.00 0.00 0.00 0.00 0.00 0.00 0.00 0.00 0.00 0.00 0.00 0.00 0.00 0.01 0.00 0.00 0.01 0.02 0.00 0.00 0.00 0.00 0.00 0.00 0.00 0.00 0.00 0.00 0.00 0.00 0.00 0.00 0.00 0.00
0.00 0.00 0.00 0.00 0.00 0.00 0.00 0.00 0.00 0.00 0.00 0.00 0.00 0.00 0.00 0.00 0.00 0.00 0.00 0.00 0.00 0.00 0.00 0.00 0.00 0.00 0.01 0.00 0.00 0.00 0.00 0.00 0.00 0.00 0.00 0.00 0.00 0.00 0.00 0.00 0.00 0.00 0.00 0.00
0.00 0.00 0.00 0.00 0.00 0.00 0.00 0.00 0.00 0.00 0.00 0.00 0.00 0.00 0.00 0.00 0.00 0.00 0.00 0.00 0.00 0.00 0.00 0.00 0.00 0.00 0.00 0.00 0.00 0.00 0.00 0.00 0.00 0.00 0.00 0.00 0.00 0.00 0.00 0.00 0.00 0.00 0.00 0.00
0.00 0.00 0.00 0.00 0.00 0.00 0.00 0.00 0.00 0.00 0.00 0.00 0.00 0.00 0.00 0.00 0.00 0.00 0.00 0.00 0.00 0.00 0.00 0.00 0.00 0.00 0.00 0.00 0.00 0.00 0.00 0.00 0.00 0.00 0.00 0.00 0.00 0.00 0.00 0.00 0.00 0.00 0.00 0.00
0.00 0.00 0.00 0.00 0.00 0.00 0.00 0.00 0.00 0.00 0.00 0.00 0.00 0.00 0.00 0.00 0.00 0.00 0.00 0.00 0.00 0.00 0.00 0.00 0.00 0.00 0.00 0.00 0.00 0.00 0.00 0.00 0.00 0.00 0.00 0.00 0.00 0.00 0.00 0.00 0.00 0.00 0.00 0.00
0.00 0.00 0.00 0.00 0.00 0.00 0.00 0.00 0.00 0.00 0.00 0.00 0.00 0.00 0.00 0.00 0.00 0.00 0.00 0.00 0.00 0.00 0.00 0.00 0.00 0.00 0.00 0.00 0.00 0.00 0.00 0.00 0.00 0.00 0.00 0.00 0.00 0.00 0.00 0.00 0.00 0.00 0.00 0.00
0.00 0.00 0.00 0.00 0.00 0.00 0.00 0.00 0.00 0.00 0.00 0.00 0.00 0.00 0.00 0.00 0.00 0.00 0.00 0.00 0.00 0.00 0.00 0.00 0.00 0.00 0.00 0.00 0.00 0.00 0.00 0.00 0.00 0.00 0.00 0.00 0.00 0.00 0.00 0.00 0.00 0.00 0.00 0.00
0.00 0.00 0.00 0.00 0.00 0.00 0.00 0.00 0.00 0.00 0.00 0.00 0.00 0.00 0.00 0.00 0.00 0.00 0.00 0.00 0.00 0.00 0.00 0.00 0.00 0.00 0.00 0.00 0.00 0.00 0.00 0.00 0.00 0.00 0.00 0.00 0.00 0.00 0.00 0.00 0.00 0.00 0.00 0.00
0.00 0.00 0.00 0.00 0.00 0.00 0.00 0.00 0.00 0.00 0.00 0.00 0.00 0.00 0.00 0.00 0.00 0.00 0.00 0.00 0.00 0.00 0.00 0.00 0.00 0.00 0.00 0.00 0.00 0.00 0.00 0.00 0.00 0.00 0.00 0.00 0.00 0.00 0.00 0.00 0.00 0.00 0.00 0.00
0.00 0.00 0.00 0.00 0.00 0.00 0.00 0.00 0.00 0.00 0.00 0.00 0.00 0.00 0.00 0.00 0.00 0.00 0.00 0.00 0.00 0.00 0.00 0.00 0.00 0.00 0.00 0.00 0.00 0.00 0.00 0.00 0.00 0.00 0.00 0.00 0.00 0.00 0.00 0.00 0.00 0.00 0.00 0.00
0.00 0.00 0.00 0.00 0.00 0.00 0.00 0.00 0.00 0.00 0.00 0.00 0.00 0.00 0.00 0.00 0.00 0.00 0.00 0.00 0.00 0.00 0.00 0.00 0.00 0.00 0.00 0.00 0.00 0.00 0.00 0.00 0.00 0.00 0.00 0.00 0.00 0.00 0.00 0.00 0.00 0.00 0.00 0.00
0.00 0.00 0.00 0.00 0.00 0.00 0.00 0.00 0.00 0.00 0.00 0.00 0.00 0.00 0.00 0.00 0.00 0.00 0.00 0.00 0.00 0.00 0.00 0.00 0.00 0.00 0.00 0.00 0.00 0.00 0.00 0.00 0.00 0.00 0.00 0.00 0.00 0.00 0.00 0.00 0.00 0.00 0.00 0.00
0.00 0.00 0.00 0.00 0.00 0.00 0.00 0.00 0.00 0.00 0.00 0.00 0.00 0.00 0.00 0.00 0.00 0.00 0.00 0.00 0.00 0.00 0.00 0.00 0.00 0.00 0.00 0.00 0.00 0.00 0.00 0.00 0.00 0.00 0.00 0.00 0.00 0.00 0.00 0.00 0.00 0.00 0.00 0.00
0.00 0.00 0.00 0.00 0.00 0.00 0.00 0.00 0.00 0.00 0.00 0.00 0.00 0.00 0.00 0.00 0.00 0.00 0.00 0.00 0.00 0.00 0.00 0.00 0.00 0.00 0.00 0.00 0.00 0.00 0.00 0.00 0.00 0.00 0.00 0.00 0.00 0.00 0.00 0.00 0.00 0.00 0.00 0.00
0.00 0.00 0.00 0.00 0.00 0.00 0.00 0.00 0.00 0.00 0.00 0.00 0.00 0.00 0.00 0.00 0.00 0.00 0.00 0.00 0.00 0.00 0.00 0.00 0.00 0.00 0.00 0.00 0.00 0.00 0.00 0.00 0.00 0.00 0.00 0.00 0.00 0.00 0.00 0.00 0.00 0.00 0.00 0.00
0.00 0.00 0.00 0.00 0.00 0.00 0.00 0.00 0.00 0.00 0.00 0.00 0.00 0.00 0.00 0.00 0.00 0.00 0.00 0.00 0.00 0.00 0.00 0.00 0.00 0.00 0.00 0.00 0.00 0.00 0.00 0.00 0.00 0.00 0.00 0.00 0.00 0.00 0.00 0.00 0.00 0.00 0.00 0.00
0.00 0.00 0.00 0.00 0.00 0.00 0.00 0.00 0.00 0.00 0.00 0.00 0.00 0.00 0.00 0.00 0.00 0.00 0.00 0.00 0.00 0.00 0.00 0.00 0.00 0.00 0.00 0.00 0.00 0.00 0.00 0.00 0.00 0.00 0.00 0.00 0.00 0.00 0.00 0.00 0.00 0.00 0.00 0.00
0.00 0.00 0.00 0.00 0.00 0.00 0.00 0.00 0.00 0.00 0.00 0.00 0.00 0.00 0.00 0.00 0.00 0.00 0.00 0.00 0.00 0.00 0.00 0.00 0.00 0.00 0.00 0.00 0.00 0.00 0.00 0.00 0.00 0.00 0.00 0.00 0.00 0.00 0.00 0.00 0.00 0.00 0.00 0.00
0.00 0.00 0.00 0.00 0.00 0.00 0.00 0.00 0.00 0.00 0.00 0.00 0.00 0.00 0.00 0.00 0.00 0.00 0.00 0.00 0.00 0.00 0.00 0.00 0.00 0.00 0.00 0.00 0.00 0.00 0.00 0.00 0.00 0.00 0.00 0.00 0.00 0.00 0.00 0.00 0.00 0.00 0.00 0.00
0.00 0.00 0.00 0.00 0.00 0.00 0.00 0.00 0.00 0.00 0.00 0.00 0.00 0.00 0.00 0.00 0.00 0.00 0.00 0.00 0.00 0.00 0.00 0.00 0.00 0.00 0.00 0.00 0.00 0.00 0.00 0.00 0.00 0.00 0.00 0.00 0.00 0.00 0.00 0.00 0.00 0.00 0.00 0.00
0.00 0.00 0.00 0.00 0.00 0.00 0.00 0.00 0.00 0.00 0.00 0.00 0.00 0.00 0.00 0.00 0.00 0.00 0.00 0.00 0.00 0.00 0.00 0.00 0.00 0.00 0.00 0.00 0.00 0.00 0.00 0.00 0.00 0.00 0.00 0.00 0.00 0.00 0.00 0.00 0.00 0.00 0.00 0.00
0.00 0.00 0.00 0.00 0.00 0.00 0.00 0.00 0.00 0.00 0.00 0.00 0.00 0.00 0.00 0.00 0.00 0.00 0.00 0.00 0.00 0.00 0.00 0.00 0.00 0.00 0.00 0.00 0.00 0.00 0.00 0.00 0.00 0.00 0.00 0.00 0.00 0.00 0.00 0.00 0.00 0.00 0.00 0.00
0.00 0.00 0.00 0.00 0.00 0.00 0.00 0.00 0.00 0.00 0.00 0.00 0.00 0.00 0.00 0.00 0.00 0.00 0.00 0.00 0.00 0.00 0.00 0.00 0.00 0.00 0.00 0.00 0.00 0.00 0.00 0.00 0.00 0.00 0.00 0.00 0.00 0.00 0.00 0.00 0.00 0.00 0.00 0.00
0.00 0.00 0.00 0.00 0.00 0.00 0.00 0.00 0.00 0.00 0.00 0.00 0.00 0.00 0.00 0.00 0.00 0.00 0.00 0.00 0.00 0.01 0.02 0.00 0.00 0.00 0.00 0.00 0.00 0.00 0.00 0.00 0.00 0.00 0.00 0.00 0.00 0.00 0.00 0.00 0.00 0.00 0.00 0.00
0.00 0.00 0.00 0.00 0.00 0.00 0.00 0.00 0.00 0.00 0.00 0.00 0.00 0.00 0.00 0.00 0.00 0.00 0.00 0.00 0.03 0.05 0.00 0.00 0.00 0.00 0.00 0.00 0.00 0.00 0.00 0.00 0.00 0.00 0.00 0.00 0.00 0.00 0.00 0.00 0.00 0.00 0.00 0.00
MSLP
1011.08 1011.22 1011.57 1011.97 1012.00 1012.22 1012.60 1013.24 1013.90 1014.93 1015.62 1016.18 1017.34 1017.83 1018.32 1018.52 1018.54 1018.84 1019.12 1019.50 1019.92 1020.32 1020.83 1021.13 1021.41 1021.44 1021.59 1022.02 1022.34 1022.73 1023.10 1023.34 1023.50 1023.92 1024.07 1024.01 1024.22 1024.64 1024.84 1024.80 1024.86 1024.92 1025.02 1024.98
1011.16 1011.77 1012.29 1012.28 1012.33 1012.58 1013.15 1013.83 1014.77 1015.54 1015.80 1016.07 1017.36 1018.10 1018.70 1018.95 1019.35 1019.58 1019.54 1019.82 1020.00 1020.50 1020.97 1021.30 1021.28 1021.28 1021.35 1021.80 1021.89 1022.42 1022.91 1023.26 1023.50 1023.75 1023.95 1024.07 1024.35 1024.69 1024.88 1025.13 1025.40 1025.52 1025.53 1025.48
1011.63 1012.43 1012.38 1012.67 1013.24 1013.29 1013.72 1014.16 1014.98 1015.42 1016.00 1016.40 1016.85 1017.99 1018.71 1019.32 1019.72 1019.96 1020.17 1020.34 1020.52 1020.57 1020.96 1021.44 1021.51 1021.61 1021.76 1022.11 1022.46 1022.79 1023.23 1023.73 1024.02 1024.04 1024.21 1024.45 1024.76 1025.02 1025.23 1025.59 1025.65 1025.66 1025.42 1025.14
1012.40 1012.75 1012.85 1013.24 1013.60 1013.35 1014.01 1014.46 1014.81 1015.51 1015.90 1016.38 1016.86 1017.74 1018.59 1019.19 1019.70 1020.08 1020.40 1020.70 1020.86 1021.04 1021.30 1021.64 1021.94 1022.01 1022.20 1022.69 1023.07 1023.42 1023.88 1024.36 1024.54 1024.67 1024.68 1024.86 1025.08 1025.30 1025.85 1025.91 1025.79 1025.57 1025.65 1025.42
1013.18 1013.04 1013.18 1013.43 1013.89 1013.53 1014.60 1014.82 1015.17 1015.76 1016.06 1016.43 1016.92 1017.29 1018.25 1019.01 1019.38 1019.70 1020.16 1020.67 1021.01 1021.20 1021.28 1021.75 1022.06 1022.12 1022.37 1022.82 1023.58 1023.86 1024.17 1024.76 1025.10 1025.15 1025.21 1025.34 1025.66 1026.04 1026.14 1026.12 1026.12 1025.99 1025.75 1025.60
1013.12 1013.15 1013.41 1013.66 1014.06 1013.69 1014.41 1015.20 1015.81 1016.35 1016.53 1016.92 1017.07 1017.31 1017.53 1017.99 1017.86 1018.91 1019.77 1020.41 1020.82 1021.10 1021.33 1021.71 1022.12 1022.52 1022.90 1023.34 1024.01 1024.11 1024.44 1025.20 1025.42 1025.69 1026.01 1026.19 1026.45 1026.65 1026.58 1026.55 1026.28 1025.86 1025.43 1024.96
1013.50 1013.82 1013.75 1013.62 1014.05 1014.65 1014.65 1015.49 1016.50 1017.01 1017.27 1017.38 1017.60 1017.57 1016.34 1016.78 1017.33 1017.92 1018.84 1019.67 1020.41 1020.93 1021.46 1021.92 1022.12 1022.64 1023.26 1023.57 1024.32 1024.66 1024.92 1025.60 1026.11 1026.41 1026.66 1026.81 1026.90 1026.91 1026.85 1026.71 1026.36 1025.94 1025.33 1024.83
1014.11 1014.28 1013.88 1013.80 1014.02 1014.42 1015.22 1015.69 1016.37 1017.15 1017.97 1017.78 1017.96 1017.26 1016.25 1016.66 1017.07 1017.44 1018.26 1019.26 1020.28 1021.04 1021.69 1022.09 1022.57 1022.93 1023.37 1023.97 1024.53 1024.92 1025.31 1025.81 1026.33 1026.57 1026.76 1026.97 1027.04 1027.07 1026.97 1026.89 1026.56 1026.01 1025.52 1024.95
1014.31 1014.49 1014.25 1014.20 1014.22 1014.72 1015.60 1016.27 1016.90 1017.70 1019.03 1018.66 1017.89 1017.34 1016.36 1016.68 1017.03 1017.71 1018.53 1019.43 1020.23 1021.01 1021.76 1022.30 1022.96 1023.50 1024.09 1024.50 1024.99 1025.03 1025.32 1025.87 1026.38 1026.70 1026.92 1027.13 1027.20 1027.16 1026.97 1026.75 1026.49 1026.02 1025.63 1025.02
1014.36 1014.77 1014.80 1014.74 1014.69 1015.23 1015.34 1016.50 1017.29 1017.95 1018.88 1018.96 1018.17 1017.72 1016.74 1016.90 1017.01 1017.75 1018.59 1019.20 1020.17 1021.13 1021.98 1022.75 1023.44 1024.04 1024.57 1024.92 1025.47 1025.82 1025.89 1026.06 1026.52 1026.78 1026.92 1026.98 1026.98 1026.98 1026.77 1026.61 1026.33 1025.95 1025.53 1025.11
1014.52 1014.87 1015.56 1015.27 1015.21 1015.33 1016.14 1016.76 1017.84 1018.48 1019.20 1019.10 1018.84 1017.34 1016.87 1016.88 1017.11 1017.42 1018.05 1019.11 1020.13 1021.15 1022.09 1022.97 1023.71 1024.29 1024.72 1025.08 1025.46 1025.60 1025.88 1026.30 1026.46 1026.73 1026.97 1026.98 1026.86 1026.81 1026.80 1026.63 1026.36 1026.08 1025.75 1025.37
1015.10 1015.54 1015.97 1015.94 1015.69 1015.73 1015.89 1016.61 1017.37 1018.49 1019.68 1019.91 1019.52 1017.70 1017.36 1017.56 1017.72 1017.99 1018.62 1019.51 1020.43 1021.35 1022.26 1023.12 1023.81 1024.32 1024.83 1025.13 1025.31 1025.23 1025.92 1026.23 1026.45 1026.84 1026.96 1027.04 1026.92 1026.98 1026.93 1026.76 1026.55 1026.41 1026.09 1025.86
1015.27 1016.15 1016.69 1016.71 1016.54 1016.23 1016.43 1017.01 1017.69 1018.35 1019.00 1019.32 1019.16 1017.64 1017.62 1017.95 1017.97 1018.16 1018.71 1019.81 1020.64 1021.49 1022.40 1023.20 1023.84 1024.23 1024.55 1024.83 1024.91 1025.26 1025.71 1026.14 1026.63 1026.78 1026.87 1026.88 1027.03 1027.09 1026.95 1026.78 1026.60 1026.43 1026.18 1025.88
1015.63 1016.70 1016.86 1017.01 1016.84 1016.82 1016.98 1017.16 1017.63 1017.80 1018.59 1018.72 1018.06 1017.31 1017.28 1017.65 1018.12 1018.66 1019.24 1019.90 1020.59 1021.51 1022.29 1022.92 1023.55 1023.88 1024.16 1024.33 1024.74 1025.18 1025.67 1026.24 1026.55 1026.68 1026.70 1026.90 1027.00 1026.93 1026.82 1026.65 1026.42 1026.20 1025.96 1025.63
1016.62 1017.45 1017.98 1018.11 1017.96 1017.58 1017.22 1017.19 1017.40 1017.55 1017.50 1017.65 1016.99 1017.00 1016.67 1017.02 1017.56 1018.56 1019.44 1020.10 1020.69 1021.34 1022.03 1022.53 1022.97 1023.38 1023.64 1024.09 1024.52 1025.15 1025.62 1026.08 1026.40 1026.45 1026.63 1026.68 1026.72 1026.68 1026.55 1026.39 1026.18 1025.92 1025.63 1025.33
1017.81 1018.71 1019.05 1019.20 1018.84 1018.32 1017.75 1017.27 1017.33 1017.35 1017.25 1017.03 1016.80 1016.39 1016.16 1016.91 1017.74 1018.68 1019.14 1019.83 1020.30 1020.84 1021.42 1021.99 1022.53 1022.88 1023.45 1024.00 1024.48 1024.91 1025.37 1025.83 1026.08 1026.28 1026.32 1026.39 1026.48 1026.37 1026.21 1026.12 1025.90 1025.57 1025.29 1025.09
1018.76 1019.32 1020.00 1020.01 1019.51 1018.82 1018.17 1016.44 1016.39 1016.49 1016.34 1016.14 1016.30 1015.57 1016.40 1017.04 1017.52 1017.73 1018.52 1019.28 1019.78 1020.27 1020.78 1021.30 1021.74 1022.30 1022.92 1023.61 1024.17 1024.59 1025.07 1025.47 1025.77 1025.93 1025.94 1025.96 1025.98 1025.87 1025.84 1025.77 1025.47 1025.19 1024.97 1024.84
1019.23 1019.86 1020.40 1020.76 1020.34 1018.94 1016.21 1015.90 1015.87 1015.86 1015.59 1015.59 1015.63 1015.77 1016.26 1016.77 1017.27 1017.65 1018.09 1018.57 1019.13 1019.72 1020.17 1020.64 1021.23 1021.88 1022.58 1023.35 1023.96 1024.49 1024.80 1025.11 1025.35 1025.44 1025.42 1025.44 1025.45 1025.44 1025.38 1025.31 1025.03 1024.77 1024.60 1024.43
1019.32 1020.07 1021.10 1021.33 1020.36 1018.36 1016.12 1015.95 1015.95 1015.73 1014.92 1014.72 1015.31 1015.82 1016.66 1017.36 1017.55 1017.35 1017.60 1017.98 1018.30 1018.97 1019.61 1020.15 1020.68 1021.44 1022.32 1023.04 1023.68 1024.16 1024.47 1024.76 1024.95 1024.92 1024.92 1024.94 1024.95 1024.85 1024.85 1024.72 1024.53 1024.39 1024.23 1024.04
1019.99 1020.08 1020.52 1021.59 1020.51 1018.61 1016.36 1015.61 1015.44 1015.46 1015.12 1014.56 1015.14 1016.03 1016.89 1017.33 1017.50 1016.47 1016.62 1017.30 1018.11 1018.93 1019.57 1020.14 1020.90 1021.57 1022.24 1022.89 1023.44 1023.81 1024.16 1024.44 1024.45 1024.58 1024.57 1024.52 1024.47 1024.35 1024.24 1024.12 1024.06 1024.05 1024.02 1024.02
1020.58 1021.03 1021.13 1021.24 1019.92 1017.96 1016.16 1015.82 1015.67 1015.70 1015.40 1014.91 1015.24 1015.79 1016.61 1016.80 1016.17 1016.27 1016.45 1017.16 1017.77 1018.66 1019.40 1020.21 1021.11 1021.93 1022.22 1022.66 1023.21 1023.67 1024.00 1024.10 1024.26 1024.43 1024.39 1024.25 1024.02 1023.87 1023.73 1023.60 1023.65 1023.67 1023.75 1023.98
1019.57 1020.19 1020.77 1020.92 1019.46 1017.51 1016.06 1016.11 1015.88 1014.99 1014.85 1014.97 1015.27 1015.45 1015.93 1015.70 1016.24 1016.65 1017.06 1017.60 1018.21 1018.86 1019.60 1020.04 1021.00 1021.71 1022.34 1022.83 1023.18 1023.58 1023.79 1023.95 1024.20 1024.31 1024.14 1023.84 1023.55 1023.41 1023.23 1023.13 1023.18 1023.38 1023.65 1023.92
1019.09 1018.52 1018.69 1018.88 1017.20 1016.01 1015.73 1015.20 1014.75 1014.92 1014.97 1014.93 1015.20 1015.30 1015.78 1016.24 1016.65 1017.06 1017.60 1018.12 1018.71 1019.35 1020.15 1020.63 1021.13 1021.86 1022.56 1022.95 1023.31 1023.46 1023.50 1023.92 1024.05 1024.06 1023.75 1023.53 1023.36 1023.03 1022.75 1022.74 1022.77 1023.10 1023.53 1023.80
1018.17 1017.95 1017.94 1017.79 1016.04 1015.55 1015.24 1014.82 1014.69 1014.60 1014.71 1014.65 1014.79 1015.03 1015.55 1015.81 1016.58 1017.42 1018.04 1018.79 1019.43 1020.07 1020.32 1021.04 1021.49 1022.05 1022.58 1022.96 1023.27 1023.51 1023.73 1023.83 1023.86 1023.73 1023.63 1023.50 1023.17 1022.83 1022.54 1022.60 1022.60 1022.77 1023.12 1023.44
1017.60 1017.52 1017.05 1016.64 1015.49 1014.92 1014.48 1014.33 1014.17 1014.15 1014.28 1014.47 1014.66 1014.94 1015.24 1015.86 1016.54 1017.30 1018.25 1019.10 1019.69 1020.37 1021.32 1021.52 1021.83 1022.23 1022.60 1023.01 1023.30 1023.48 1023.49 1023.56 1023.59 1023.63 1023.41 1023.18 1023.04 1022.76 1022.43 1022.35 1022.26 1022.48 1022.67 1022.92
1016.62 1015.95 1015.90 1015.07 1014.27 1014.54 1014.20 1013.84 1013.96 1014.12 1014.10 1014.20 1014.70 1015.15 1015.60 1016.04 1016.87 1017.80 1018.92 1019.68 1020.01 1020.54 1021.53 1021.75 1021.98 1022.27 1022.64 1023.00 1023.35 1023.32 1023.18 1023.39 1023.49 1023.33 1022.87 1022.61 1022.48 1022.34 1022.16 1022.07 1022.01 1022.22 1022.42 1022.71
Thickness
5662 5665 5659 5661 5662 5661 5659 5655 5652 5647 5647 5644 5631 5635 5637 5641 5644 5642 5642 5641 5638 5635 5632 5630 5627 5626 5625 5621 5617 5613 5608 5602 5598 5590 5585 5583 5578 5570 5563 5559 5556 5551 5545 5541
5663 5651 5657 5660 5661 5658 5653 5647 5640 5641 5646 5649 5639 5633 5635 5637 5634 5635 5638 5636 5636 5631 5629 5625 5625 5625 5623 5617 5615 5609 5602 5595 5590 5585 5579 5574 5566 5559 5554 5548 5542 5537 5532 5527
5653 5654 5659 5657 5650 5652 5647 5646 5639 5644 5644 5646 5646 5635 5631 5632 5631 5630 5630 5629 5629 5629 5624 5620 5619 5617 5614 5610 5605 5600 5594 5586 5579 5574 5569 5563 5555 5548 5542 5535 5530 5525 5522 5519
5651 5653 5653 5649 5646 5653 5645 5647 5647 5639 5642 5638 5638 5632 5627 5628 5626 5625 5623 5622 5621 5620 5618 5614 5609 5607 5605 5599 5594 5588 5581 5573 5566 5560 5555 5549 5544 5538 5528 5523 5519 5515 5511 5507
5641 5646 5647 5645 5644 5653 5643 5645 5646 5639 5637 5636 5632 5636 5625 5623 5621 5622 5621 5617 5614 5614 5614 5607 5603 5602 5599 5592 5583 5578 5571 5562 5553 5548 5543 5538 5532 5525 5518 5513 5507 5502 5499 5495
5643 5650 5647 5647 5644 5651 5647 5642 5636 5630 5630 5623 5626 5628 5625 5623 5631 5623 5618 5613 5612 5611 5608 5604 5598 5593 5588 5583 5574 5570 5562 5550 5544 5538 5531 5525 5519 5511 5506 5499 5495 5493 5489 5485
5638 5637 5644 5650 5644 5643 5644 5636 5618 5615 5613 5615 5614 5614 5639 5635 5630 5629 5620 5616 5611 5607 5602 5597 5595 5589 5580 5575 5564 5558 5552 5541 5532 5525 5518 5511 5504 5498 5492 5487 5483 5480 5478 5473
5624 5621 5639 5645 5644 5640 5632 5634 5620 5601 5601 5616 5609 5615 5638 5631 5631 5630 5625 5618 5608 5602 5596 5593 5586 5581 5575 5566 5558 5551 5544 5535 5525 5516 5509 5501 5494 5486 5480 5473 5469 5466 5462 5459
5621 5621 5636 5638 5641 5641 5627 5623 5621 5600 5581 5597 5610 5617 5632 5625 5625 5622 5616 5611 5605 5600 5593 5587 5579 5572 5565 5558 5549 5544 5537 5526 5516 5507 5499 5489 5481 5473 5468 5463 5457 5453 5448 5444
5628 5617 5626 5631 5635 5631 5633 5623 5616 5607 5594 5592 5606 5605 5628 5622 5626 5622 5614 5612 5604 5595 5586 5579 5571 5563 5556 5549 5539 5531 5524 5516 5505 5495 5487 5479 5471 5464 5458 5453 5447 5442 5436 5428
5627 5623 5617 5624 5624 5626 5622 5617 5603 5604 5592 5600 5596 5622 5626 5629 5631 5626 5624 5611 5602 5591 5582 5572 5563 5554 5545 5537 5528 5521 5512 5502 5494 5485 5476 5468 5462 5455 5447 5440 5433 5426 5418 5410
5621 5612 5607 5617 5623 5625 5627 5620 5614 5605 5596 5576 5584 5620 5616 5615 5618 5619 5614 5603 5594 5586 5575 5564 5554 5543 5534 5526 5519 5513 5502 5493 5484 5473 5464 5456 5449 5440 5433 5426 5417 5408 5399 5388
5621 5608 5599 5610 5619 5622 5623 5615 5605 5597 5589 5587 5596 5620 5612 5607 5609 5612 5609 5594 5585 5577 5564 5553 5543 5535 5527 5519 5512 5503 5493 5482 5470 5461 5454 5445 5436 5427 5420 5412 5403 5393 5384 5372
5619 5605 5610 5610 5614 5613 5613 5612 5607 5612 5600 5595 5602 5619 5618 5614 5608 5601 5596 5590 5581 5569 5557 5547 5536 5528 5520 5512 5503 5493 5481 5468 5459 5451 5442 5433 5424 5416 5408 5399 5389 5380 5369 5358
5614 5608 5601 5596 5597 5605 5612 5611 5608 5611 5610 5609 5615 5608 5618 5618 5611 5600 5589 5580 5571 5561 5550 5540 5531 5523 5515 5503 5494 5481 5469 5458 5448 5440 5430 5422 5413 5404 5395 5385 5375 5366 5353 5339
5598 5595 5592 5593 5591 5594 5604 5609 5607 5603 5604 5604 5602 5612 5615 5606 5598 5588 5583 5573 5566 5556 5547 5535 5524 5516 5504 5493 5483 5471 5459 5448 5438 5428 5420 5411 5401 5392 5383 5372 5360 5348 5335 5321
5591 5581 5590 5590 5576 5584 5592 5611 5612 5607 5607 5612 5602 5622 5603 5596 5591 5590 5579 5568 5559 5551 5541 5530 5519 5510 5498 5485 5472 5462 5450 5439 5428 5418 5409 5400 5392 5382 5370 5357 5346 5334 5320 5304
5574 5575 5563 5582 5558 5583 5621 5613 5612 5609 5608 5607 5606 5603 5598 5592 5584 5580 5572 5563 5554 5543 5535 5524 5513 5501 5489 5475 5462 5450 5440 5430 5419 5410 5401 5391 5381 5370 5357 5344 5332 5320 5305 5292
5581 5569 5554 5577 5576 5588 5613 5604 5602 5600 5612 5609 5602 5595 5582 5570 5570 5572 5563 5556 5550 5538 5527 5516 5506 5494 5478 5466 5453 5441 5431 5420 5410 5402 5392 5381 5369 5359 5346 5333 5319 5305 5292 5283
5568 5557 5576 5545 5571 5575 5598 5599 5598 5598 5590 5602 5593 5581 5567 5565 5562 5573 5561 5549 5536 5525 5513 5503 5491 5478 5467 5454 5442 5431 5421 5410 5402 5390 5379 5369 5358 5347 5334 5321 5307 5293 5281 5272
5556 5540 5561 5520 5564 5571 5587 5588 5586 5577 5583 5583 5579 5573 5559 5560 5566 5559 5546 5536 5529 5515 5501 5487 5476 5463 5454 5442 5430 5420 5409 5400 5389 5377 5366 5356 5346 5335 5322 5309 5294 5283 5272 5260
5572 5560 5549 5516 5541 5564 5576 5576 5570 5580 5574 5572 5567 5564 5555 5559 5545 5539 5529 5521 5511 5500 5487 5478 5464 5452 5439 5428 5418 5408 5398 5388 5375 5363 5354 5346 5337 5323 5310 5298 5286 5273 5261 5250
5566 5571 5567 5561 5569 5573 5569 5571 5571 5566 5565 5564 5557 5554 5547 5538 5531 5523 5515 5505 5495 5485 5472 5462 5451 5438 5424 5413 5403 5396 5387 5374 5363 5352 5344 5335 5323 5311 5301 5289 5278 5265 5252 5242
5560 5554 5557 5557 5572 5562 5560 5562 5561 5559 5556 5554 5550 5547 5536 5534 5522 5509 5498 5488 5478 5466 5459 5445 5434 5422 5410 5400 5390 5381 5371 5361 5351 5342 5331 5319 5310 5300 5291 5279 5267 5256 5245 5237
5556 5549 5549 5546 5557 5557 5561 5558 5558 5555 5548 5544 5540 5535 5530 5522 5510 5498 5486 5471 5460 5449 5434 5428 5418 5408 5399 5387 5377 5368 5359 5349 5339 5327 5318 5308 5297 5288 5279 5268 5259 5248 5241 5234
5549 5552 5544 5547 5562 5556 5556 5556 5551 5548 5547 5542 5533 5523 5514 5508 5495 5483 5467 5456 5446 5433 5421 5412 5405 5396 5385 5374 5363 5356 5348 5336 5325 5315 5309 5299 5289 5278 5269 5260 5252 5242 5235 5228